Location: Caltech
(34.1382°N, 118.1253°W)
Time: 17:32:05
(UTC-07:00)

Aureole 3 Rocket - Visible Passes

Search period start: 24 April 2018 00:00
Search period end: 04 May 2018 00:00
Orbit: 399 x 1742 km, 82.5° (Epoch: 24 April)

Date Brightness Start Highest point End Pass type
(mag) Time Alt. Az. Time Alt. Az. Time Alt. Az.
24 Apr 6.6 04:51:06 10° ESE 04:55:31 21° ENE 05:00:56 10° NNE visible
26 Apr 6.4 04:50:52 10° SE 04:56:10 29° E 05:02:56 10° NNE visible
27 Apr 7.2 04:01:43 10° E 04:04:10 12° ENE 04:06:49 10° NE visible
28 Apr 5.9 04:50:56 10° SSE 04:56:53 39° E 05:04:43 10° NNE visible
29 Apr 6.8 04:00:21 10° ESE 04:04:45 18° ENE 04:09:52 10° NE visible
30 Apr 5.4 04:51:13 10° SSE 04:57:42 52° E 05:06:21 10° NNE visible
01 May 6.7 03:59:52 10° SE 04:05:24 24° ENE 04:12:06 10° NNE visible
02 May 5.1 04:51:43 10° S 04:58:37 68° E 05:07:54 10° NNE visible
03 May 6.3 03:59:47 10° SE 04:06:08 33° E 04:14:02 10° NNE visible
